リニア彗星

C/2004 X2 ( LINEAR )

English version
Home page
Updated on September 25, 2005

---------------------------------------------------------------------

・ プロフィール

発見日 2004年12月8日
発見光度 18.9等
発見者 Lincoln Laboratory Near-Earth Asteroid Research project

・ 軌道要素

Epoch 2004 Aug. 23.0 TT = JDT 2453240.5
T 2004 Aug. 24.09073 TT                                 MPC
q   3.7919100            (2000.0)            P               Q
z  +0.0008616      Peri.  162.16606     -0.50255959     -0.41829281
 +/-0.0000296      Node   307.33806     +0.63084194     +0.42099734
e   0.9967328      Incl.   72.10687     +0.59116183     -0.80485549

・ 星図

・ 光度変化

        m1 = 9.3 + 5 logΔ + 10 log r(t - 200)

---------------------------------------------------------------------

軌道要素はM.P.E.C. 2005-B43に掲載されたものです。
星図は StellaNavigator Ver.2.0 for Windows (アストロアーツ 編著 / アスキー出版局刊) で作成したものです。
光度グラフはComet for Windowsで作成したものです。

---------------------------------------------------------------------

Copyright(C) Seiichi Yoshida (comet@aerith.net). All rights reserved.